EN

Hourly Weather Abel Tasman National Park

Today, 25 November, Wednesday

Time Temperature Precipitation Wind Pressure Humidity
00:00 +9°C° 0 mm 3 mps 725 mmHg 94%
01:00 +8°C° 1.1 mm 4 mps 725 mmHg 95%
02:00 +8°C° 1.1 mm 4 mps 724 mmHg 95%
03:00 +7°C° 1.1 mm 5 mps 724 mmHg 96%
04:00 +7°C° 1.8 mm 5 mps 723 mmHg 96%
05:00 +7°C° 1.8 mm 5 mps 723 mmHg 96%
06:00 +8°C° 0 mm 5 mps 723 mmHg 96%
07:00 +8°C° 1.8 mm 5 mps 723 mmHg 96%
08:00 +8°C° 1.8 mm 5 mps 723 mmHg 96%
09:00 +8°C° 1.8 mm 5 mps 723 mmHg 96%
10:00 +9°C° 1 mm 5 mps 723 mmHg 95%
11:00 +9°C° 1 mm 6 mps 723 mmHg 95%
12:00 +9°C° 0 mm 5 mps 723 mmHg 95%
13:00 +9°C° 0.1 mm 6 mps 723 mmHg 93%
14:00 +10°C° 0.1 mm 6 mps 722 mmHg 91%
15:00 +10°C° 0.1 mm 6 mps 722 mmHg 89%
16:00 +10°C° 0.1 mm 6 mps 722 mmHg 88%
17:00 +11°C° 0.1 mm 6 mps 722 mmHg 87%
18:00 +12°C° 0 mm 4 mps 722 mmHg 90%
19:00 +12°C° 0.1 mm 4 mps 722 mmHg 89%
20:00 +12°C° 0.1 mm 4 mps 723 mmHg 88%
21:00 +12°C° 0.1 mm 4 mps 723 mmHg 87%
22:00 +11°C° 0.6 mm 4 mps 723 mmHg 89%
23:00 +10°C° 0.6 mm 5 mps 723 mmHg 90%

Tomorrow, 26 November, Thursday

Time Temperature Precipitation Wind Pressure Humidity
00:00 +10°C° 0.6 mm 5 mps 723 mmHg 91%
01:00 +11°C° 1.6 mm 4 mps 723 mmHg 91%
02:00 +11°C° 1.6 mm 4 mps 722 mmHg 91%
03:00 +11°C° 1.6 mm 4 mps 722 mmHg 91%
04:00 +11°C° 0.7 mm 4 mps 722 mmHg 91%
05:00 +11°C° 0.7 mm 4 mps 722 mmHg 91%
06:00 +11°C° 0.7 mm 4 mps 723 mmHg 91%
07:00 +12°C° 0.2 mm 3 mps 723 mmHg 90%
08:00 +12°C° 0.2 mm 3 mps 723 mmHg 88%
09:00 +13°C° 0.2 mm 3 mps 723 mmHg 87%
10:00 +15°C° 0 mm 2 mps 723 mmHg 82%
11:00 +17°C° 0 mm 2 mps 723 mmHg 77%
12:00 +18°C° 0 mm 2 mps 723 mmHg 72%
13:00 +18°C° 0.1 mm 2 mps 723 mmHg 75%
14:00 +18°C° 0.1 mm 2 mps 722 mmHg 78%
15:00 +18°C° 0.1 mm 2 mps 722 mmHg 81%
16:00 +18°C° 0.1 mm 2 mps 722 mmHg 83%
17:00 +17°C° 0.1 mm 2 mps 722 mmHg 84%
18:00 +17°C° 0.1 mm 2 mps 722 mmHg 86%
19:00 +16°C° 0 mm 2 mps 722 mmHg 89%
20:00 +14°C° 0 mm 2 mps 722 mmHg 92%
21:00 +13°C° 0 mm 1 mps 722 mmHg 96%
22:00 +12°C° 0 mm 1 mps 722 mmHg 93%
23:00 +12°C° 0 mm 2 mps 722 mmHg 91%

Day after tomorrow, 27 November, Friday

Time Temperature Precipitation Wind Pressure Humidity
00:00 +10°C° 0 mm 2 mps 722 mmHg 89%
01:00 +10°C° 0 mm 2 mps 722 mmHg 84%
02:00 +10°C° 0 mm 2 mps 722 mmHg 79%
03:00 +10°C° 0 mm 3 mps 722 mmHg 74%
04:00 +10°C° 0 mm 3 mps 722 mmHg 72%
05:00 +10°C° 0 mm 4 mps 722 mmHg 70%
06:00 +10°C° 0 mm 4 mps 722 mmHg 68%
07:00 +13°C° 0 mm 4 mps 722 mmHg 62%
08:00 +17°C° 0 mm 3 mps 722 mmHg 57%
09:00 +19°C° 0 mm 3 mps 722 mmHg 52%
10:00 +19°C° 0 mm 4 mps 722 mmHg 55%
11:00 +17°C° 0 mm 5 mps 723 mmHg 59%
12:00 +17°C° 0 mm 6 mps 723 mmHg 62%
13:00 +17°C° 0 mm 6 mps 723 mmHg 58%
14:00 +16°C° 0 mm 6 mps 723 mmHg 54%
15:00 +16°C° 0 mm 7 mps 723 mmHg 50%
16:00 +15°C° 0 mm 6 mps 724 mmHg 50%
17:00 +14°C° 0 mm 6 mps 724 mmHg 50%
18:00 +14°C° 0 mm 6 mps 725 mmHg 50%
19:00 +12°C° 0 mm 5 mps 726 mmHg 58%
20:00 +10°C° 0 mm 4 mps 726 mmHg 65%
21:00 +8°C° 0 mm 2 mps 727 mmHg 73%
22:00 +8°C° 0 mm 2 mps 728 mmHg 77%
23:00 +7°C° 0 mm 2 mps 728 mmHg 81%

28 November, Saturday

Time Temperature Precipitation Wind Pressure Humidity
00:00 +7°C° 0 mm 2 mps 728 mmHg 85%
01:00 +7°C° 0 mm 2 mps 728 mmHg 85%
02:00 +7°C° 0 mm 2 mps 728 mmHg 85%
03:00 +6°C° 0 mm 2 mps 728 mmHg 85%
04:00 +7°C° 0 mm 2 mps 729 mmHg 83%
05:00 +7°C° 0 mm 2 mps 729 mmHg 81%
06:00 +7°C° 0 mm 2 mps 729 mmHg 79%
07:00 +9°C° 0 mm 2 mps 729 mmHg 71%
08:00 +12°C° 0 mm 1 mps 729 mmHg 63%
09:00 +14°C° 0 mm 1 mps 730 mmHg 55%
10:00 +15°C° 0 mm 2 mps 729 mmHg 55%
11:00 +14°C° 0 mm 3 mps 729 mmHg 55%
12:00 +15°C° 0 mm 4 mps 729 mmHg 55%
13:00 +17°C° 0 mm 4 mps 728 mmHg 53%
14:00 +17°C° 0 mm 4 mps 728 mmHg 51%
15:00 +18°C° 0 mm 4 mps 727 mmHg 50%
16:00 +17°C° 0 mm 4 mps 727 mmHg 51%
17:00 +17°C° 0 mm 4 mps 726 mmHg 53%
18:00 +15°C° 0 mm 4 mps 726 mmHg 55%
19:00 +13°C° 0 mm 4 mps 725 mmHg 58%
20:00 +10°C° 0 mm 5 mps 725 mmHg 61%
21:00 +8°C° 0 mm 5 mps 725 mmHg 65%
22:00 +8°C° 0 mm 5 mps 724 mmHg 70%
23:00 +8°C° 0 mm 6 mps 723 mmHg 75%

29 November, Sunday

Time Temperature Precipitation Wind Pressure Humidity
00:00 +7°C° 0 mm 6 mps 723 mmHg 81%
01:00 +7°C° 0.7 mm 6 mps 722 mmHg 85%
02:00 +7°C° 0.7 mm 5 mps 721 mmHg 90%
03:00 +7°C° 0.7 mm 5 mps 720 mmHg 94%
04:00 +8°C° 1 mm 4 mps 719 mmHg 95%
05:00 +8°C° 1 mm 4 mps 719 mmHg 95%
06:00 +9°C° 1 mm 3 mps 718 mmHg 96%
07:00 +13°C° 0 mm 2 mps 719 mmHg 87%
08:00 +15°C° 0 mm 2 mps 719 mmHg 79%
09:00 +18°C° 0 mm 1 mps 720 mmHg 70%
10:00 +18°C° 0 mm 2 mps 720 mmHg 63%
11:00 +20°C° 0 mm 2 mps 721 mmHg 55%
12:00 +21°C° 0 mm 2 mps 721 mmHg 48%
13:00 +21°C° 0 mm 3 mps 721 mmHg 50%
14:00 +20°C° 0 mm 4 mps 721 mmHg 51%
15:00 +20°C° 0 mm 4 mps 721 mmHg 53%
16:00 +18°C° 0 mm 4 mps 720 mmHg 61%
17:00 +16°C° 0 mm 5 mps 720 mmHg 69%
18:00 +14°C° 0 mm 5 mps 720 mmHg 77%
19:00 +13°C° 0.5 mm 4 mps 720 mmHg 82%
20:00 +12°C° 0.5 mm 3 mps 720 mmHg 87%
21:00 +13°C° 0.5 mm 2 mps 719 mmHg 93%
22:00 +12°C° 1 mm 3 mps 719 mmHg 94%
23:00 +12°C° 1 mm 3 mps 718 mmHg 95%

30 November, Monday

Time Temperature Precipitation Wind Pressure Humidity
00:00 +12°C° 1 mm 4 mps 717 mmHg 97%
01:00 +13°C° 1.1 mm 5 mps 716 mmHg 97%
02:00 +13°C° 1.1 mm 6 mps 715 mmHg 98%
03:00 +13°C° 1.1 mm 8 mps 714 mmHg 99%
04:00 +13°C° 0.2 mm 8 mps 713 mmHg 96%
05:00 +13°C° 0.2 mm 9 mps 712 mmHg 94%
06:00 +13°C° 0.2 mm 9 mps 712 mmHg 92%
07:00 +15°C° 0 mm 8 mps 712 mmHg 91%
08:00 +15°C° 0 mm 8 mps 712 mmHg 89%
09:00 +15°C° 0 mm 7 mps 712 mmHg 88%
10:00 +16°C° 0 mm 6 mps 713 mmHg 80%
11:00 +17°C° 0 mm 6 mps 713 mmHg 72%
12:00 +19°C° 0 mm 6 mps 714 mmHg 64%
13:00 +17°C° 0 mm 6 mps 715 mmHg 62%
14:00 +17°C° 0 mm 6 mps 716 mmHg 60%
15:00 +16°C° 0 mm 6 mps 716 mmHg 58%
16:00 +15°C° 0 mm 6 mps 717 mmHg 59%
17:00 +14°C° 0 mm 6 mps 718 mmHg 60%
18:00 +13°C° 0 mm 6 mps 719 mmHg 61%
19:00 +12°C° 0 mm 5 mps 720 mmHg 66%
20:00 +11°C° 0 mm 4 mps 721 mmHg 72%
21:00 +10°C° 0 mm 3 mps 722 mmHg 78%
22:00 +10°C° 0 mm 3 mps 723 mmHg 80%
23:00 +9°C° 0 mm 2 mps 723 mmHg 83%
Show more